Location: Ravensburg
(48.5621°N, 13.4088°E)
Time: 18:05:47
(UTC+02:00)

ISS - Pass Details

Date: 28 March 2017
Orbit: 401 x 409 km, 51.6° (Epoch: 29 April)

Event Time Altitude Azimuth Distance (km) Brightness Sun altitude
Rises 20:44:54 0° 215° (SW) 2,309 0.2 -12.7°
Reaches altitude 10° 20:47:08 10° 203° (SSW) 1,455 -1.0 -13.0°
Maximum altitude 20:49:57 27° 143° (SE) 818 -2.8 -13.5°
Enters shadow 20:50:26 26° 127° (SE) 844 -2.8 -13.5°
